| time (UTC) | temp F | wind direction | speed knots | gust knots | rain 1hr in | rain 24hr in | rain mn in | humidity % | barometer mb |
| 20260506190025 | 66 | 247 | 25.2 | 38.2 | 0.00 | 0.50 | 0.04 | 35 | 997.9 |
| 20260506184524 | 66 | 158 | 23.5 | 34.8 | 0.00 | 0.50 | 0.04 | 36 | 997.2 |
| 20260506183004 | 64 | 155 | 13.0 | 25.2 | 0.00 | 0.50 | 0.04 | 30 | 996.4 |
| 20260506181504 | 63 | 146 | 17.4 | 27.8 | 0.00 | 0.50 | 0.04 | 33 | 995.6 |
| 20260506180005 | 62 | 131 | 15.6 | 24.3 | 0.00 | 0.50 | 0.04 | 31 | 994.8 |
| 20260506174525 | 61 | 271 | 7.0 | 18.2 | 0.00 | 0.50 | 0.04 | 28 | 994.1 |
| 20260506173004 | 62 | 278 | 20.0 | 27.8 | 0.00 | 0.50 | 0.04 | 42 | 993.7 |
| 20260506171503 | 62 | 181 | 24.3 | 34.8 | 0.00 | 0.50 | 0.04 | 47 | 993.2 |
| 20260506170004 | 59 | 114 | 9.6 | 17.4 | 0.00 | 0.50 | 0.04 | 38 | 992.3 |
| 20260506164503 | 58 | 239 | 9.6 | 21.7 | 0.00 | 0.50 | 0.04 | 38 | 991.7 |
| 20260506163004 | 59 | 209 | 18.2 | 24.3 | 0.00 | 0.50 | 0.04 | 51 | 991.6 |
| 20260506161503 | 57 | 136 | 10.4 | 19.1 | 0.00 | 0.50 | 0.04 | 47 | 991.0 |
| 20260506160004 | 55 | 144 | 9.6 | 16.5 | 0.00 | 0.50 | 0.04 | 45 | 990.2 |
| 20260506154504 | 54 | 185 | 8.7 | 20.0 | 0.00 | 0.50 | 0.04 | 47 | 989.8 |
| 20260506153004 | 54 | 211 | 10.4 | 16.5 | 0.00 | 0.50 | 0.04 | 53 | 989.5 |
| 20260506151503 | 53 | 243 | 13.9 | 19.1 | 0.00 | 0.50 | 0.04 | 58 | 989.1 |
| 20260506150004 | 51 | 205 | 7.0 | 15.6 | 0.00 | 0.50 | 0.04 | 57 | 988.6 |
| 20260506144504 | 51 | 298 | 17.4 | 22.6 | 0.01 | 0.50 | 0.04 | 62 | 988.0 |
| 20260506143003 | 49 | 223 | 12.2 | 16.5 | 0.04 | 0.50 | 0.04 | 62 | 987.8 |
| 20260506141503 | 48 | 163 | 8.7 | 14.8 | 0.04 | 0.50 | 0.04 | 63 | 987.7 |
| 20260506140003 | 46 | 119 | 2.6 | 8.7 | 0.04 | 0.50 | 0.04 | 60 | 987.3 |
| 20260506134503 | 45 | 204 | 7.8 | 11.3 | 0.03 | 0.49 | 0.03 | 65 | 986.9 |
| 20260506043003 | 41 | 215 | 2.6 | 7.8 | 0.00 | 0.46 | 0.46 | 76 | 991.1 |
| 20260506041503 | 42 | 236 | 4.3 | 10.4 | 0.00 | 0.46 | 0.46 | 77 | 991.3 |
| 20260506040004 | 43 | 216 | 5.2 | 10.4 | 0.00 | 0.46 | 0.46 | 73 | 991.0 |
| 20260506034504 | 44 | 224 | 7.0 | 11.3 | 0.00 | 0.46 | 0.46 | 72 | 991.1 |
| 20260506033004 | 44 | 176 | 6.1 | 11.3 | 0.00 | 0.46 | 0.46 | 65 | 991.0 |
| 20260506031503 | 46 | 265 | 7.0 | 11.3 | 0.00 | 0.46 | 0.46 | 65 | 991.1 |
| 20260506030003 | 47 | 200 | 3.5 | 7.8 | 0.00 | 0.46 | 0.46 | 61 | 991.2 |
| 20260506024525 | 49 | 198 | 13.9 | 20.9 | 0.00 | 0.46 | 0.46 | 68 | 991.2 |
| 20260506023003 | 49 | 122 | 7.8 | 13.9 | 0.00 | 0.46 | 0.46 | 60 | 991.2 |
| 20260506021503 | 51 | 208 | 12.2 | 16.5 | 0.00 | 0.46 | 0.46 | 59 | 991.1 |
| 20260506020003 | 50 | 324 | 2.6 | 9.6 | 0.00 | 0.46 | 0.46 | 45 | 990.7 |
| 20260506014503 | 52 | 290 | 12.2 | 20.9 | 0.10 | 0.46 | 0.46 | 50 | 990.5 |
| 20260506013004 | 55 | 283 | 20.0 | 26.1 | 0.17 | 0.46 | 0.46 | 58 | 991.0 |
| 20260506011504 | 56 | 290 | 15.6 | 24.3 | 0.22 | 0.46 | 0.46 | 54 | 990.9 |
| 20260506010004 | 57 | 182 | 19.1 | 26.9 | 0.26 | 0.46 | 0.46 | 54 | 990.8 |
| 20260506004504 | 59 | 197 | 14.8 | 33.9 | 0.24 | 0.35 | 0.36 | 56 | 991.1 |
| 20260506003004 | 58 | 229 | 13.9 | 20.9 | 0.19 | 0.28 | 0.29 | 45 | 990.3 |
| 20260506001504 | 60 | 165 | 14.8 | 22.6 | 0.17 | 0.24 | 0.24 | 45 | 990.2 |
| 20260506000004 | 62 | 121 | 19.1 | 29.5 | 0.19 | 0.19 | 0.19 | 49 | 990.2 |
| 20260505234525 | 60 | 133 | 8.7 | 16.5 | 0.11 | 0.17 | 0.11 | 35 | 989.5 |
| 20260505233005 | 62 | 166 | 7.0 | 20.0 | 0.09 | 0.16 | 0.10 | 38 | 989.6 |
| 20260505231525 | 63 | 184 | 16.5 | 31.3 | 0.07 | 0.17 | 0.07 | 39 | 989.2 |
| 20260505230005 | 63 | 128 | 16.5 | 28.7 | 0.00 | 0.13 | 0.00 | 33 | 988.8 |
| 20260505224505 | 64 | 191 | 7.8 | 15.6 | 0.00 | 0.15 | 0.00 | 31 | 988.7 |
| 20260505223005 | 65 | 171 | 14.8 | 26.9 | 0.00 | 0.20 | 0.00 | 32 | 988.5 |
| 20260505221505 | 66 | 155 | 15.6 | 27.8 | 0.00 | 0.25 | 0.00 | 36 | 988.5 |
| 20260505220026 | 65 | 201 | 11.3 | 20.0 | 0.00 | 0.26 | 0.00 | 29 | 987.9 |
| 20260505214505 | 67 | 189 | 15.6 | 26.9 | 0.00 | 0.26 | 0.00 | 33 | 987.9 |
| 20260505213005 | 67 | 235 | 13.0 | 32.2 | 0.00 | 0.26 | 0.00 | 35 | 987.7 |
| 20260505211505 | 67 | 257 | 14.8 | 24.3 | 0.00 | 0.26 | 0.00 | 32 | 987.3 |
| 20260505210005 | 68 | 241 | 21.7 | 33.9 | 0.00 | 0.26 | 0.00 | 37 | 987.2 |
| 20260505204504 | 67 | 261 | 20.9 | 33.9 | 0.00 | 0.26 | 0.00 | 30 | 986.4 |
| 20260505203005 | 68 | 272 | 20.9 | 28.7 | 0.00 | 0.26 | 0.00 | 32 | 986.2 |
| 20260505201504 | 69 | 244 | 23.5 | 42.6 | 0.00 | 0.26 | 0.00 | 40 | 986.6 |
| 20260505200004 | 67 | 223 | 25.2 | 34.8 | 0.00 | 0.26 | 0.00 | 31 | 985.6 |
| 20260505194504 | 67 | 185 | 21.7 | 33.0 | 0.00 | 0.26 | 0.00 | 34 | 985.6 |
| 20260505193004 | 66 | 143 | 20.0 | 28.7 | 0.00 | 0.26 | 0.00 | 30 | 985.2 |
| 20260505191504 | 66 | 116 | 14.8 | 25.2 | 0.00 | 0.26 | 0.00 | 31 | 985.2 |